• In Deutschland
  • Länderverzeichnis
  • Für 7 Tage
  • Wassertemperatur
  • Satellitenkarten
  • Wetterkarte
  • Widgets
  • user-avatar
    Anmelden

    Stündliche Wetter Ankum

    Heute, 19 Oktober, Donnerstag

    Zeit Temperatur Niederschläge Wind Luftdruck Luftfeuchtigkeit
    00:00 +13°C° 0 mm 2 m/S 755 mmHg 88%
    01:00 +13°C° 0 mm 1 m/S 755 mmHg 87%
    02:00 +13°C° 0 mm 1 m/S 755 mmHg 88%
    03:00 +13°C° 0 mm 1 m/S 754 mmHg 89%
    04:00 +13°C° 0 mm 2 m/S 754 mmHg 90%
    05:00 +12°C° 0 mm 2 m/S 754 mmHg 91%
    06:00 +12°C° 0 mm 2 m/S 754 mmHg 92%
    07:00 +12°C° 0 mm 1 m/S 754 mmHg 92%
    08:00 +13°C° 0 mm 2 m/S 754 mmHg 88%
    09:00 +15°C° 0 mm 2 m/S 754 mmHg 84%
    10:00 +16°C° 0 mm 3 m/S 754 mmHg 80%
    11:00 +18°C° 0 mm 3 m/S 754 mmHg 76%
    12:00 +19°C° 0 mm 3 m/S 754 mmHg 72%
    13:00 +20°C° 0 mm 3 m/S 754 mmHg 68%
    14:00 +20°C° 0 mm 3 m/S 753 mmHg 69%
    15:00 +20°C° 0 mm 3 m/S 753 mmHg 70%
    16:00 +20°C° 0 mm 2 m/S 753 mmHg 72%
    17:00 +18°C° 0 mm 2 m/S 753 mmHg 75%
    18:00 +17°C° 0 mm 3 m/S 753 mmHg 79%
    19:00 +14°C° 0 mm 3 m/S 753 mmHg 82%
    20:00 +14°C° 0 mm 3 m/S 753 mmHg 83%
    21:00 +14°C° 0 mm 3 m/S 753 mmHg 83%
    22:00 +14°C° 0 mm 3 m/S 753 mmHg 83%
    23:00 +14°C° 0 mm 3 m/S 753 mmHg 82%

    Morgen, 20 Oktober, Freitag

    Zeit Temperatur Niederschläge Wind Luftdruck Luftfeuchtigkeit
    00:00 +16°C° 0 mm 3 m/S 753 mmHg 81%
    01:00 +16°C° 0 mm 3 m/S 753 mmHg 79%
    02:00 +15°C° 0,1 mm 4 m/S 753 mmHg 78%
    03:00 +15°C° 0,1 mm 4 m/S 753 mmHg 77%
    04:00 +15°C° 0,1 mm 4 m/S 752 mmHg 75%
    05:00 +15°C° 0,1 mm 4 m/S 752 mmHg 73%
    06:00 +15°C° 0,1 mm 4 m/S 752 mmHg 71%
    07:00 +15°C° 0,1 mm 4 m/S 752 mmHg 69%
    08:00 +15°C° 0,5 mm 5 m/S 753 mmHg 74%
    09:00 +15°C° 0,5 mm 5 m/S 753 mmHg 79%
    10:00 +15°C° 0,5 mm 6 m/S 753 mmHg 84%
    11:00 +15°C° 0,5 mm 6 m/S 753 mmHg 82%
    12:00 +15°C° 0,5 mm 6 m/S 754 mmHg 80%
    13:00 +15°C° 0,5 mm 6 m/S 754 mmHg 78%
    14:00 +15°C° 0,1 mm 5 m/S 754 mmHg 77%
    15:00 +15°C° 0,1 mm 5 m/S 754 mmHg 75%
    16:00 +15°C° 0,1 mm 4 m/S 754 mmHg 73%
    17:00 +14°C° 0 mm 4 m/S 754 mmHg 75%
    18:00 +13°C° 0 mm 4 m/S 755 mmHg 77%
    19:00 +12°C° 0 mm 3 m/S 755 mmHg 80%
    20:00 +11°C° 0 mm 3 m/S 756 mmHg 81%
    21:00 +10°C° 0 mm 3 m/S 756 mmHg 82%
    22:00 +10°C° 0 mm 3 m/S 756 mmHg 83%
    23:00 +10°C° 0 mm 3 m/S 756 mmHg 85%

    übermorgen, 21 Oktober, Samstag

    Zeit Temperatur Niederschläge Wind Luftdruck Luftfeuchtigkeit
    00:00 +9°C° 0 mm 3 m/S 756 mmHg 86%
    01:00 +9°C° 0 mm 3 m/S 756 mmHg 87%
    02:00 +10°C° 0 mm 3 m/S 756 mmHg 86%
    03:00 +10°C° 0 mm 3 m/S 755 mmHg 84%
    04:00 +10°C° 0 mm 3 m/S 755 mmHg 82%
    05:00 +10°C° 0 mm 3 m/S 755 mmHg 82%
    06:00 +10°C° 0 mm 4 m/S 754 mmHg 82%
    07:00 +10°C° 0 mm 4 m/S 754 mmHg 82%
    08:00 +11°C° 0,3 mm 4 m/S 754 mmHg 84%
    09:00 +11°C° 0,3 mm 4 m/S 753 mmHg 86%
    10:00 +12°C° 0,3 mm 5 m/S 753 mmHg 89%
    11:00 +13°C° 0,3 mm 5 m/S 753 mmHg 88%
    12:00 +14°C° 0,3 mm 5 m/S 753 mmHg 87%
    13:00 +15°C° 0,3 mm 6 m/S 753 mmHg 87%
    14:00 +15°C° 0 mm 5 m/S 753 mmHg 86%
    15:00 +15°C° 0 mm 5 m/S 753 mmHg 84%
    16:00 +15°C° 0 mm 5 m/S 752 mmHg 83%
    17:00 +14°C° 0 mm 5 m/S 753 mmHg 85%
    18:00 +13°C° 0 mm 4 m/S 753 mmHg 86%
    19:00 +12°C° 0 mm 4 m/S 753 mmHg 88%
    20:00 +11°C° 0 mm 4 m/S 753 mmHg 86%
    21:00 +10°C° 0 mm 5 m/S 753 mmHg 84%
    22:00 +10°C° 0 mm 5 m/S 754 mmHg 82%
    23:00 +10°C° 0 mm 5 m/S 754 mmHg 81%

    22 Oktober, Sonntag

    Zeit Temperatur Niederschläge Wind Luftdruck Luftfeuchtigkeit
    00:00 +9°C° 0 mm 6 m/S 753 mmHg 80%
    01:00 +9°C° 0 mm 6 m/S 753 mmHg 79%
    02:00 +9°C° 0 mm 6 m/S 753 mmHg 79%
    03:00 +8°C° 0 mm 6 m/S 753 mmHg 79%
    04:00 +8°C° 0 mm 6 m/S 753 mmHg 78%
    05:00 +8°C° 0 mm 6 m/S 753 mmHg 79%
    06:00 +8°C° 0 mm 6 m/S 753 mmHg 79%
    07:00 +8°C° 0 mm 6 m/S 753 mmHg 80%
    08:00 +8°C° 0 mm 6 m/S 753 mmHg 77%
    09:00 +9°C° 0 mm 7 m/S 753 mmHg 75%
    10:00 +10°C° 0 mm 7 m/S 753 mmHg 73%
    11:00 +10°C° 0 mm 7 m/S 754 mmHg 72%
    12:00 +10°C° 0 mm 7 m/S 754 mmHg 72%
    13:00 +10°C° 0 mm 7 m/S 754 mmHg 71%
    14:00 +10°C° 0 mm 7 m/S 754 mmHg 71%
    15:00 +10°C° 0 mm 7 m/S 754 mmHg 72%
    16:00 +10°C° 0 mm 7 m/S 753 mmHg 72%
    17:00 +10°C° 0,6 mm 7 m/S 754 mmHg 77%
    18:00 +9°C° 0,6 mm 7 m/S 754 mmHg 82%
    19:00 +8°C° 0,6 mm 6 m/S 754 mmHg 87%
    20:00 +8°C° 0,2 mm 6 m/S 754 mmHg 88%
    21:00 +8°C° 0,2 mm 6 m/S 755 mmHg 89%
    22:00 +8°C° 0,2 mm 6 m/S 755 mmHg 90%
    23:00 +8°C° 0 mm 6 m/S 755 mmHg 90%

    23 Oktober, Montag

    Zeit Temperatur Niederschläge Wind Luftdruck Luftfeuchtigkeit
    00:00 +8°C° 0 mm 6 m/S 755 mmHg 91%
    01:00 +8°C° 0 mm 5 m/S 756 mmHg 91%
    02:00 +8°C° 0 mm 5 m/S 756 mmHg 92%
    03:00 +8°C° 0 mm 5 m/S 756 mmHg 92%
    04:00 +8°C° 0 mm 5 m/S 757 mmHg 93%
    05:00 +8°C° 0,2 mm 5 m/S 757 mmHg 93%
    06:00 +8°C° 0,2 mm 5 m/S 758 mmHg 93%
    07:00 +9°C° 0,2 mm 5 m/S 758 mmHg 92%
    08:00 +10°C° 0,1 mm 5 m/S 759 mmHg 89%
    09:00 +10°C° 0,1 mm 5 m/S 759 mmHg 86%
    10:00 +12°C° 0,1 mm 5 m/S 760 mmHg 82%
    11:00 +12°C° 0,1 mm 5 m/S 760 mmHg 81%
    12:00 +13°C° 0,1 mm 5 m/S 760 mmHg 79%
    13:00 +13°C° 0,1 mm 5 m/S 761 mmHg 78%
    14:00 +12°C° 0,1 mm 5 m/S 761 mmHg 81%
    15:00 +12°C° 0,1 mm 4 m/S 761 mmHg 84%
    16:00 +11°C° 0,1 mm 4 m/S 761 mmHg 88%
    17:00 +11°C° 0,2 mm 4 m/S 761 mmHg 89%
    18:00 +11°C° 0,2 mm 3 m/S 761 mmHg 91%
    19:00 +11°C° 0,2 mm 3 m/S 761 mmHg 93%
    20:00 +11°C° 0 mm 3 m/S 762 mmHg 94%
    21:00 +11°C° 0 mm 3 m/S 762 mmHg 94%
    22:00 +11°C° 0 mm 3 m/S 762 mmHg 95%
    23:00 +11°C° 0,1 mm 3 m/S 762 mmHg 96%

    24 Oktober, Dienstag

    Zeit Temperatur Niederschläge Wind Luftdruck Luftfeuchtigkeit
    00:00 +11°C° 0,1 mm 3 m/S 762 mmHg 96%
    01:00 +12°C° 0,1 mm 3 m/S 762 mmHg 97%
    02:00 +12°C° 0,1 mm 3 m/S 762 mmHg 97%
    03:00 +12°C° 0,1 mm 3 m/S 762 mmHg 97%
    04:00 +12°C° 0,1 mm 3 m/S 762 mmHg 96%
    05:00 +12°C° 0,1 mm 3 m/S 762 mmHg 96%
    06:00 +12°C° 0,1 mm 3 m/S 762 mmHg 96%
    07:00 +12°C° 0,1 mm 3 m/S 762 mmHg 96%
    08:00 +13°C° 0,2 mm 3 m/S 763 mmHg 95%
    09:00 +13°C° 0,2 mm 3 m/S 763 mmHg 95%
    10:00 +13°C° 0,2 mm 4 m/S 763 mmHg 94%
    11:00 +14°C° 0 mm 4 m/S 763 mmHg 93%
    12:00 +14°C° 0 mm 4 m/S 764 mmHg 92%
    13:00 +15°C° 0 mm 4 m/S 764 mmHg 90%
    14:00 +15°C° 0 mm 4 m/S 764 mmHg 90%
    15:00 +16°C° 0 mm 3 m/S 764 mmHg 91%
    16:00 +16°C° 0 mm 3 m/S 764 mmHg 91%
    17:00 +14°C° 0 mm 3 m/S 764 mmHg 92%
    18:00 +14°C° 0 mm 3 m/S 764 mmHg 93%
    19:00 +13°C° 0 mm 3 m/S 764 mmHg 95%
    20:00 +13°C° 0 mm 3 m/S 764 mmHg 95%
    21:00 +13°C° 0 mm 3 m/S 765 mmHg 95%
    22:00 +13°C° 0 mm 3 m/S 765 mmHg 95%
    23:00 +12°C° 0 mm 3 m/S 765 mmHg 95%
    Mehr zeigen